Terug naar catalogus

COSMOS 1589

ActiefMilitairPO
NORAD 15171·PAYLOAD·🇷🇺 Russia

Gelanceerd Aug 8, 1984 vanaf Plesetsk Cosmodrome

Loading…

Volgende Passages (komende 24 uur)

TLE

VersSource: Space-Track

Epoch: Sep 14, 2026, 21:53 UTC

1 15171U 84084A   26257.91214332  .00000007  00000-0 -22727-4 0  9998
2 15171  82.5927 100.6212 0005765 187.4349 237.9483 12.42258226909009

Volg COSMOS 1589 in realtime met AllMySat

Download on the App Store